Location: Apollinopolis Magna
(24.9792°N, 32.8772°E)
Time: 04:33:48
(UTC+00:00)

Cosmos 2242 Rocket - Pass Details

Date: 02 March 2021
Orbit: 617 x 652 km, 82.5° (Epoch: 12 April)

Event Time Altitude Azimuth Distance (km) Brightness Sun altitude
Rises 17:11:46 0° 3° (N) 2,931 7.0 -19.0°
Reaches altitude 10° 17:14:06 10° 9° (N) 2,015 6.1 -19.6°
Enters shadow 17:17:19 37° 44° (NE) 971 4.2 -20.3°
